Japanese version Home page |
Updated on October 6, 2020 |
|
Orbital ElementsEpoch 2019 June 6.0 TT = JDT 2458640.5 T 2019 June 14.24641 TT Rudenko q 3.0224755 (2000.0) P Q n 0.12241792 Peri. 42.74952 -0.98583509 -0.06120694 a 4.0170391 Node 133.02987 +0.01965562 -0.96677834 e 0.2475862 Incl. 12.33413 +0.16656177 -0.24818009 P 8.05 From 447 observations 1950 Apr. 20-2020 June 26, mean residual 0".7. Nongravitational parameters A1 = +16.22, A2 = -0.7136.
|
Magnitudes Graphm1 = 4.0 + 5 log d + 25 log r
|
The orbital elements are published on M.P.E.C. 2020-P19.
|